Location: Dreilärchen
(47.9312°N, 8.6113°E)
Time: 02:33:34
(UTC+00:00)

USA 267 - Pass Details

Date: 26 May 2022
Orbit: 1101 x 1106 km, 123.0° (Epoch: 25 June)

Event Time Altitude Azimuth Distance (km) Brightness Sun altitude
Exits shadow 01:02:05 24° 225° (SW) 2,101 4.2 -17.5°
Maximum altitude 01:02:48 24° 234° (SW) 2,082 4.2 -17.4°
Drops below altitude 10° 01:07:57 10° 287° (WNW) 2,963 5.4 -17.0°
Sets 01:11:00 0° 301° (WNW) 3,925 6.2 -16.8°
